Weather History for Beeville, TX

Change the Weather History Date:

Wednesday, June 19, 2013

  Actual Average (KCRP) Record (KCRP)
Temperature  
Mean Temperature 86 °F 83 °F  
Max Temperature 99 °F 91 °F 98 °F (2013)
Min Temperature 75 °F 74 °F 66 °F (1912)
Degree Days  
Heating Degree Days 0 0  
Month to date heating degree days 0  
Since 1 June heating degree days 0  
Since 1 July heating degree days 898  
Cooling Degree Days 22 18  
Month to date cooling degree days 322  
Year to date cooling degree days 1163  
Since 1 June cooling degree days 322  
Growing Degree Days 36 (Base 50)    
Moisture  
Dew Point 72 °F    
Average Humidity 67    
Maximum Humidity 100    
Minimum Humidity 34    
Precipitation  
Precipitation 0.00 in 0.12 in 3.15 in (1993)
Month to date precipitation 2.04  
Year to date precipitation 12.31  
Snow  
Snow 0.00 in - - ()
Month to date snowfall  
Since 1 June snowfall  
Since 1 July snowfall  
Snow Depth -    
Sea Level Pressure  
Sea Level Pressure 29.94 in    
Wind  
Wind Speed 10 mph (SSE)    
Max Wind Speed 21 mph    
Max Gust Speed 25 mph    
Visibility 10 miles    
Events      
T = Trace of Precipitation, MM = Missing Value Source: NWS Daily Summary

Daily Weather History Graph

Daily Weather History Graph

Search for Another Location

Airport:

Trip Planner

Search our weather history database for the weather conditions in past years. The results will help you decide how hot, cold, wet, or windy it might be!

Date:

Astronomy

Jun. 19, 2013 Rise Set
Actual Time 6:34 AM CDT 8:31 PM CDT
Civil Twilight 6:07 AM CDT 8:57 PM CDT
Nautical Twilight 5:34 AM CDT 9:30 PM CDT
Astronomical Twilight 5:00 AM CDT 10:05 PM CDT
Moon 4:37 PM CDT (6/19) 3:04 AM CDT (6/19)
Length of Visible Light 14h 50m
Length of Day
13h 56m
Waxing Gibbous, 80% of the Moon is Illuminated
Jun 19
Waxing Gibbous
Jun 23
Full
Jun 29
Last Quarter
Jul 8
New
Jul 15
First Quarter

Hourly Weather History & Observations

Time (CDT) Temp. Heat Index Dew Point Humidity Pressure Visibility Wind Dir Wind Speed Gust Speed Precip Events Conditions
12:15 AM 79.9 °F - 76.3 °F 89% 29.94 in 10.0 mi SSE 9.2 mph - N/A   Clear
12:35 AM 79.7 °F - 77.0 °F 91% 29.94 in 10.0 mi SSE 6.9 mph - N/A   Scattered Clouds
12:55 AM 79.7 °F - 77.0 °F 91% 29.94 in 10.0 mi South 9.2 mph - N/A   Scattered Clouds
1:15 AM 79.3 °F - 77.0 °F 93% 29.93 in 10.0 mi SSE 9.2 mph - N/A   Clear
1:35 AM 79.3 °F - 77.2 °F 93% 29.93 in 10.0 mi South 13.8 mph 19.6 mph N/A   Scattered Clouds
1:55 AM 79.7 °F - 77.0 °F 91% 29.93 in 10.0 mi SSE 11.5 mph 17.3 mph N/A   Scattered Clouds
2:15 AM 79.7 °F - 77.0 °F 91% 29.93 in 10.0 mi South 10.4 mph 18.4 mph N/A   Scattered Clouds
2:35 AM 79.7 °F - 77.0 °F 91% 29.93 in 10.0 mi South 9.2 mph - N/A   Mostly Cloudy
2:55 AM 79.0 °F - 76.3 °F 91% 29.93 in 10.0 mi South 10.4 mph - N/A   Scattered Clouds
3:15 AM 78.8 °F - 76.3 °F 92% 29.92 in 10.0 mi South 10.4 mph - N/A   Scattered Clouds
3:35 AM 78.4 °F - 76.1 °F 92% 29.92 in 10.0 mi South 9.2 mph - N/A   Scattered Clouds
3:55 AM 78.3 °F - 76.1 °F 93% 29.92 in 10.0 mi SSE 9.2 mph - N/A   Scattered Clouds
4:15 AM 78.8 °F - 76.3 °F 92% 29.92 in 10.0 mi South 9.2 mph - N/A   Mostly Cloudy
4:35 AM 78.3 °F - 76.3 °F 94% 29.92 in 10.0 mi South 8.1 mph - N/A   Overcast
4:55 AM 78.4 °F - 76.3 °F 93% 29.92 in 10.0 mi South 8.1 mph - N/A   Mostly Cloudy
5:15 AM 77.9 °F - 76.1 °F 94% 29.93 in 10.0 mi South 8.1 mph - N/A   Scattered Clouds
5:35 AM 77.7 °F - 76.1 °F 95% 29.93 in 10.0 mi South 6.9 mph - N/A   Scattered Clouds
5:55 AM 77.0 °F - 75.9 °F 96% 29.93 in 10.0 mi South 4.6 mph - N/A   Scattered Clouds
6:15 AM 76.5 °F - 75.7 °F 98% 29.93 in 10.0 mi SSE 4.6 mph - N/A   Scattered Clouds
6:35 AM 76.1 °F - 75.6 °F 98% 29.94 in 7.0 mi South 3.5 mph - N/A   Scattered Clouds
6:55 AM 75.2 °F - 75.0 °F 99% 29.94 in 5.0 mi SSE 4.6 mph - N/A   Clear
7:15 AM 75.6 °F - 75.6 °F 100% 29.95 in 4.0 mi SE 3.5 mph - N/A   Scattered Clouds
7:35 AM 76.8 °F - 76.5 °F 99% 29.95 in 7.0 mi Calm Calm - N/A   Mostly Cloudy
7:55 AM 78.8 °F - 77.0 °F 94% 29.95 in 10.0 mi SSE 3.5 mph - N/A   Overcast
8:15 AM 81.0 °F 87.5 °F 76.5 °F 86% 29.96 in 10.0 mi SSE 6.9 mph - N/A   Mostly Cloudy
8:35 AM 82.0 °F 88.9 °F 75.4 °F 80% 29.96 in 10.0 mi South 12.7 mph - N/A   Scattered Clouds
8:55 AM 82.9 °F 90.2 °F 75.2 °F 77% 29.97 in 10.0 mi South 9.2 mph - N/A   Mostly Cloudy
9:15 AM 84.0 °F 90.8 °F 73.8 °F 71% 29.97 in 10.0 mi South 13.8 mph - N/A   Scattered Clouds
9:35 AM 84.7 °F 90.7 °F 72.3 °F 66% 29.97 in 10.0 mi SSW 13.8 mph 18.4 mph N/A   Scattered Clouds
9:55 AM 86.5 °F 92.9 °F 72.0 °F 62% 29.97 in 10.0 mi South 12.7 mph - N/A   Clear
10:15 AM 88.2 °F 95.0 °F 72.0 °F 59% 29.98 in 10.0 mi South 10.4 mph - N/A   Scattered Clouds
10:35 AM 90.0 °F 95.9 °F 70.9 °F 53% 29.97 in 10.0 mi South 15.0 mph 19.6 mph N/A   Mostly Cloudy
10:55 AM 90.3 °F 95.7 °F 70.0 °F 51% 29.97 in 10.0 mi South 15.0 mph 19.6 mph N/A   Scattered Clouds
11:15 AM 90.5 °F 95.5 °F 69.3 °F 50% 29.97 in 10.0 mi South 11.5 mph 19.6 mph N/A   Clear
11:35 AM 91.4 °F 96.3 °F 69.3 °F 48% 29.96 in 10.0 mi South 13.8 mph 18.4 mph N/A   Scattered Clouds
11:55 AM 92.7 °F 97.2 °F 68.5 °F 45% 29.96 in 10.0 mi South 13.8 mph 21.9 mph N/A   Scattered Clouds
12:15 PM 93.9 °F 98.0 °F 67.5 °F 42% 29.95 in 10.0 mi South 16.1 mph 20.7 mph N/A   Clear
12:35 PM 94.3 °F 98.7 °F 67.6 °F 42% 29.95 in 10.0 mi SSE 12.7 mph 21.9 mph N/A   Clear
12:55 PM 95.5 °F 98.9 °F 65.8 °F 38% 29.95 in 10.0 mi South 9.2 mph 19.6 mph N/A   Clear
1:15 PM 96.3 °F 99.7 °F 66.2 °F 37% 29.93 in 10.0 mi South 17.3 mph 20.7 mph N/A   Clear
1:35 PM 97.0 °F 100.4 °F 66.0 °F 36% 29.93 in 10.0 mi South 9.2 mph 18.4 mph N/A   Clear
1:55 PM 97.2 °F 99.6 °F 64.8 °F 34% 29.93 in 10.0 mi South 15.0 mph 21.9 mph N/A   Scattered Clouds
2:15 PM 96.4 °F 99.4 °F 65.5 °F 36% 29.92 in 10.0 mi SE 11.5 mph 23.0 mph N/A   Scattered Clouds
2:35 PM 96.3 °F 99.1 °F 65.5 °F 36% 29.92 in 10.0 mi SSE 6.9 mph 18.4 mph N/A   Scattered Clouds
2:55 PM 97.3 °F 101.7 °F 67.1 °F 37% 29.91 in 10.0 mi SSE 8.1 mph 21.9 mph N/A   Mostly Cloudy
3:15 PM 96.4 °F 101.1 °F 68.0 °F 39% 29.91 in 10.0 mi SSE 12.7 mph - N/A   Scattered Clouds
3:35 PM 98.1 °F 103.7 °F 68.2 °F 38% 29.90 in 10.0 mi SSE 13.8 mph 20.7 mph N/A   Scattered Clouds
3:55 PM 97.2 °F 102.5 °F 68.7 °F 39% 29.90 in 10.0 mi SE 12.7 mph 20.7 mph N/A   Mostly Cloudy
4:15 PM 98.8 °F 104.5 °F 68.4 °F 37% 29.90 in 10.0 mi SE 12.7 mph - N/A   Scattered Clouds
4:35 PM 97.9 °F 103.3 °F 68.4 °F 38% 29.90 in 10.0 mi SE 16.1 mph 21.9 mph N/A   Scattered Clouds
4:55 PM 97.7 °F 103.0 °F 68.0 °F 38% 29.89 in 10.0 mi SSE 16.1 mph 21.9 mph N/A   Scattered Clouds
5:15 PM 97.5 °F 102.0 °F 66.9 °F 37% 29.89 in 10.0 mi SE 16.1 mph 20.7 mph N/A   Clear
5:35 PM 96.6 °F 99.8 °F 65.8 °F 36% 29.89 in 10.0 mi SE 19.6 mph 24.2 mph N/A   Scattered Clouds
5:55 PM 95.5 °F 98.9 °F 65.8 °F 38% 29.90 in 1.8 mi SE 17.3 mph 25.3 mph N/A   Haze
6:15 PM 93.6 °F 96.9 °F 66.4 °F 41% 29.89 in 10.0 mi SE 20.7 mph 24.2 mph N/A   Clear
6:35 PM 92.7 °F 96.2 °F 66.9 °F 43% 29.90 in 10.0 mi SE 18.4 mph 24.2 mph N/A   Clear
6:55 PM 91.4 °F 94.5 °F 66.9 °F 44% 29.91 in 10.0 mi SE 19.6 mph 25.3 mph N/A   Clear
7:15 PM 89.6 °F 94.3 °F 69.3 °F 51% 29.92 in 10.0 mi SE 19.6 mph 25.3 mph N/A   Clear
7:35 PM 88.7 °F 94.3 °F 70.5 °F 55% 29.93 in 10.0 mi SSE 19.6 mph 25.3 mph N/A   Clear
7:55 PM 87.1 °F 92.4 °F 70.9 °F 58% 29.94 in 10.0 mi SSE 18.4 mph 23.0 mph N/A   Clear
8:15 PM 85.6 °F 91.1 °F 71.2 °F 62% 29.94 in 10.0 mi SE 16.1 mph 19.6 mph N/A   Clear
8:35 PM 84.6 °F 89.4 °F 70.9 °F 63% 29.95 in 10.0 mi SE 12.7 mph 17.3 mph N/A   Clear
8:55 PM 83.7 °F 88.6 °F 71.4 °F 66% 29.95 in 10.0 mi SE 11.5 mph - N/A   Clear
9:15 PM 83.3 °F 89.0 °F 72.5 °F 70% 29.96 in 10.0 mi SE 13.8 mph 21.9 mph N/A   Clear
9:35 PM 82.4 °F 87.7 °F 72.7 °F 72% 29.97 in 10.0 mi SE 9.2 mph 17.3 mph N/A   Clear
9:55 PM 82.0 °F 87.4 °F 73.0 °F 74% 29.98 in 10.0 mi SE 12.7 mph 17.3 mph N/A   Clear
10:15 PM 81.5 °F 86.7 °F 73.4 °F 76% 29.98 in 10.0 mi SE 12.7 mph - N/A   Clear
10:35 PM 81.0 °F 86.0 °F 73.4 °F 78% 29.98 in 10.0 mi SSE 10.4 mph - N/A   Clear
10:55 PM 80.6 °F 85.5 °F 73.8 °F 80% 29.99 in 10.0 mi SE 8.1 mph - N/A   Clear
11:15 PM 80.2 °F 84.9 °F 73.9 °F 81% 29.99 in 10.0 mi SE 8.1 mph - N/A   Clear
11:35 PM 79.7 °F - 73.8 °F 82% 29.99 in 10.0 mi SSE 6.9 mph - N/A   Clear
11:55 PM 79.0 °F - 73.8 °F 84% 30.00 in 10.0 mi SSE 5.8 mph - N/A   Clear